User: anonymous
Location: Vancouver
(49.2500°N, 123.1330°W)
Time: 00:52:45
(UTC-07:00)
Language:

Oscar 11 - Orbit

View from above orbital plane
View from above orbital plane
View from above satellite
View from above satellite

Ground track
Ground track

The orbit data is extracted from the following two-line orbital elements,

1 14781U 84021B   14233.20179473  .00000348  00000-0  50795-4 0  5780
2 14781 097.8464 292.0438 0007649 336.8899 023.1969 14.81688315637596
Epoch (UTC): 21 August 2014 04:50:35
Eccentricity: 0.0007649
inclination: 97.8464°
perigee height: 618 km
apogee height: 629 km
right ascension of ascending node: 292.0438°
argument of perigee: 336.8899°
revolutions per day: 14.81688315
mean anomaly at epoch: 23.1969°
orbit number at epoch: 63759

The dashed part of the orbit path shows where the satellite is in the earth's shadow,  

DLR